FW3187 Weather Reports


Display with metric or nautical units.
time (UTC)temp
F
wind
direction
speed
MPH
gust
MPH
rain 1hr
in
rain 24hr
in
rain mn
in
humidity
%
barometer
mb
20260505004013 75 284 7.0 11.0 0.00 0.00 0.00 9 1005.3
20260505003617 76 326 6.0 12.0 0.00 0.00 0.00 11 1005.1
20260505003536 75 338 6.0 12.0 0.00 0.00 0.00 10 1005.3
20260505003117 76 305 6.0 12.0 0.00 0.00 0.00 12 1005.1
20260505003059 76 318 4.0 12.0 0.00 0.00 0.00 12 1005.3
20260505002638 76 300 7.0 16.0 0.00 0.00 0.00 11 1005.1
20260505002507 75 286 8.0 16.0 0.00 0.00 0.00 9 1005.3
20260505002138 76 306 7.0 16.0 0.00 0.00 0.00 9 1005.1
20260505002026 76 319 10.0 16.0 0.00 0.00 0.00 9 1005.5
20260505001638 76 302 4.0 10.0 0.00 0.00 0.00 11 1005.1
20260505001550 76 328 8.0 10.0 0.00 0.00 0.00 12 1005.5
20260505001117 76 271 5.0 10.0 0.00 0.00 0.00 8 1005.3
20260505001001 76 282 4.0 10.0 0.00 0.00 0.00 8 1005.5
20260505000638 76 263 5.0 11.0 0.00 0.00 0.00 8 1005.3
20260505000517 76 266 2.0 11.0 0.00 0.00 0.00 8 1005.4
20260505000117 77 271 5.0 11.0 0.00 0.00 0.00 8 1005.3
20260505000035 76 269 6.0 9.0 0.00 0.00 0.00 9 1005.4
20260504235617 77 290 4.0 9.0 0.00 0.00 0.00 9 1005.3
20260504235117 77 301 4.0 9.0 0.00 0.00 0.00 9 1005.3
20260504235051 76 277 2.0 9.0 0.00 0.00 0.00 9 1005.6
20260504234617 76 313 5.0 11.0 0.00 0.00 0.00 11 1005.3
20260504234502 76 311 4.0 11.0 0.00 0.00 0.00 11 1005.6
20260504234117 76 296 7.0 13.0 0.00 0.00 0.00 12 1005.2
20260504234012 76 337 6.0 13.0 0.00 0.00 0.00 11 1005.5
20260504233617 76 283 6.0 13.0 0.00 0.00 0.00 10 1005.3
20260504233514 76 283 9.0 13.0 0.00 0.00 0.00 9 1005.6
20260504233117 76 285 6.0 13.0 0.00 0.00 0.00 11 1005.3
20260504233035 76 297 8.0 12.0 0.00 0.00 0.00 10 1005.5
20260504232617 76 286 8.0 12.0 0.00 0.00 0.00 10 1005.3
20260504232553 76 277 6.0 13.0 0.00 0.00 0.00 9 1005.6
20260504232117 76 296 8.0 16.0 0.00 0.00 0.00 11 1005.3
20260504232003 76 274 9.0 16.0 0.00 0.00 0.00 10 1005.6
20260504231617 77 307 8.0 16.0 0.00 0.00 0.00 14 1005.3
20260504231525 76 333 3.0 16.0 0.00 0.00 0.00 13 1005.8
20260504231117 77 314 9.0 16.0 0.00 0.00 0.00 10 1005.4
20260504231038 76 298 12.0 16.0 0.00 0.00 0.00 10 1005.6
20260504230617 76 314 8.0 18.0 0.00 0.00 0.00 11 1005.4
20260504230558 76 326 8.0 18.0 0.00 0.00 0.00 11 1005.7
20260504230117 76 296 8.0 18.0 0.00 0.00 0.00 10 1005.4
20260504230008 76 335 11.0 15.0 0.00 0.00 0.00 9 1005.7
20260504225617 77 298 9.0 15.0 0.00 0.00 0.00 9 1005.8
20260504225524 76 275 13.0 15.0 0.00 0.00 0.00 9 1005.8
20260504225117 76 309 7.0 15.0 0.00 0.00 0.00 10 1005.8
20260504225046 76 306 9.0 15.0 0.00 0.00 0.00 11 1005.9
20260504224617 76 304 8.0 15.0 0.00 0.00 0.00 11 1005.8
20260504224608 76 284 6.0 15.0 0.00 0.00 0.00 11 1006.0
20260504224117 76 310 10.0 17.0 0.00 0.00 0.00 7 1005.6
20260504224012 76 311 10.0 17.0 0.00 0.00 0.00 8 1006.0
20260504223638 76 308 8.0 17.0 0.00 0.00 0.00 10 1005.8
20260504223540 75 279 12.0 17.0 0.00 0.00 0.00 11 1006.1
20260504223117 75 273 8.0 20.0 0.00 0.00 0.00 11 1005.8
20260504223100 75 313 9.0 20.0 0.00 0.00 0.00 11 1006.0
20260504222617 75 261 7.0 19.0 0.00 0.00 0.00 8 1006.0
20260504222504 75 279 11.0 20.0 0.00 0.00 0.00 7 1006.1
20260504222117 75 258 7.0 15.0 0.00 0.00 0.00 12 1006.0
20260504222024 75 222 5.0 15.0 0.00 0.00 0.00 11 1006.1
20260504221617 76 276 8.0 15.0 0.00 0.00 0.00 9 1006.0
20260504221546 75 258 7.0 15.0 0.00 0.00 0.00 8 1006.1
20260504221117 76 286 8.0 14.0 0.00 0.00 0.00 7 1006.0
20260504221100 75 281 3.0 14.0 0.00 0.00 0.00 7 1006.3
20260504220617 76 301 8.0 14.0 0.00 0.00 0.00 8 1006.2
20260504220511 76 288 10.0 14.0 0.00 0.00 0.00 8 1006.4
20260504220117 76 309 9.0 15.0 0.00 0.00 0.00 10 1006.2
20260504220031 76 307 10.0 15.0 0.00 0.00 0.00 11 1006.5
20260504215617 76 312 9.0 15.0 0.00 0.00 0.00 10 1006.2
20260504215544 76 345 10.0 15.0 0.00 0.00 0.00 10 1006.5
20260504215117 76 309 9.0 15.0 0.00 0.00 0.00 10 1006.5
20260504214638 76 298 9.0 16.0 0.00 0.00 0.00 13 1006.5
20260504214501 75 294 8.0 16.0 0.00 0.00 0.00 10 1006.8
20260504214138 76 290 8.0 16.0 0.00 0.00 0.00 9 1006.5
20260504214012 75 311 8.0 16.0 0.00 0.00 0.00 10 1006.8
20260504213617 76 292 8.0 15.0 0.00 0.00 0.00 11 1006.7
20260504213532 75 278 8.0 16.0 0.00 0.00 0.00 11 1006.8
20260504213138 75 298 8.0 14.0 0.00 0.00 0.00 11 1006.7
20260504213053 75 290 5.0 16.0 0.00 0.00 0.00 13 1006.9
20260504212638 75 290 9.0 14.0 0.00 0.00 0.00 12 1006.7
20260504212459 74 276 3.0 17.0 0.00 0.00 0.00 13 1007.0
20260504212117 75 289 9.0 17.0 0.00 0.00 0.00 11 1006.7
20260504212018 75 275 10.0 17.0 0.00 0.00 0.00 10 1007.0
20260504211617 75 291 10.0 18.0 0.00 0.00 0.00 11 1006.7
20260504211538 75 286 9.0 18.0 0.00 0.00 0.00 13 1006.9
20260504211138 75 292 9.0 18.0 0.00 0.00 0.00 14 1006.7
20260504211053 75 279 11.0 18.0 0.00 0.00 0.00 13 1007.0
20260504210638 75 291 8.0 14.0 0.00 0.00 0.00 15 1006.8
20260504210502 74 278 7.0 15.0 0.00 0.00 0.00 13 1007.1
20260504210117 74 276 7.0 14.0 0.00 0.00 0.00 13 1006.8
20260504210022 74 279 11.0 13.0 0.00 0.00 0.00 15 1007.1
20260504205617 74 263 8.0 15.0 0.00 0.00 0.00 16 1006.8
20260504205537 74 261 7.0 15.0 0.00 0.00 0.00 17 1007.2
20260504205117 74 269 8.0 15.0 0.00 0.00 0.00 14 1007.0
20260504205057 73 243 5.0 15.0 0.00 0.00 0.00 14 1007.2
20260504204617 74 261 9.0 15.0 0.00 0.00 0.00 15 1007.0
20260504204605 73 271 12.0 15.0 0.00 0.00 0.00 15 1007.2
20260504204117 73 257 9.0 15.0 0.00 0.00 0.00 14 1007.0
20260504204012 73 280 9.0 15.0 0.00 0.00 0.00 15 1007.5
20260504203638 74 265 7.0 14.0 0.00 0.00 0.00 16 1007.1
20260504203502 73 259 7.0 14.0 0.00 0.00 0.00 11 1007.3
20260504203117 74 265 6.0 14.0 0.00 0.00 0.00 15 1007.1
20260504203023 73 226 6.0 14.0 0.00 0.00 0.00 14 1007.4
20260504202617 73 277 8.0 14.0 0.00 0.00 0.00 13 1007.1
20260504202541 73 242 4.0 14.0 0.00 0.00 0.00 14 1007.5
20260504202117 74 277 8.0 14.0 0.00 0.00 0.00 15 1007.2
20260504202058 73 274 13.0 14.0 0.00 0.00 0.00 15 1007.5
20260504201617 73 256 6.0 13.0 0.00 0.00 0.00 16 1007.3
20260504201117 73 268 8.0 17.0 0.00 0.00 0.00 18 1007.3
20260504201000 72 277 4.0 17.0 0.00 0.00 0.00 17 1007.5
20260504200617 73 274 7.0 17.0 0.00 0.00 0.00 16 1007.6
20260504200117 73 273 7.0 14.0 0.00 0.00 0.00 18 1007.6
20260504200026 72 310 7.0 13.0 0.00 0.00 0.00 19 1007.6
20260504195617 73 281 8.0 13.0 0.00 0.00 0.00 16 1007.6
20260504195538 72 276 4.0 13.0 0.00 0.00 0.00 15 1007.8
20260504195138 73 283 7.0 13.0 0.00 0.00 0.00 19 1007.5
20260504195054 72 305 5.0 13.0 0.00 0.00 0.00 19 1007.8
20260504194617 73 270 8.0 13.0 0.00 0.00 0.00 16 1007.5
20260504194506 72 294 10.0 13.0 0.00 0.00 0.00 17 1007.9
20260504194117 73 279 7.0 13.0 0.00 0.00 0.00 18 1007.5
20260504193617 73 308 6.0 13.0 0.00 0.00 0.00 17 1007.5
20260504193521 72 308 8.0 13.0 0.00 0.00 0.00 18 1007.9
20260504193117 72 318 4.0 11.0 0.00 0.00 0.00 22 1007.5
20260504192617 72 285 4.0 11.0 0.00 0.00 0.00 20 1007.9
20260504192530 71 279 7.0 10.0 0.00 0.00 0.00 21 1008.1
20260504192117 72 303 5.0 10.0 0.00 0.00 0.00 18 1007.9
20260504192049 71 257 3.0 10.0 0.00 0.00 0.00 21 1008.2
20260504191617 71 308 5.0 14.0 0.00 0.00 0.00 22 1008.2
20260504191610 71 313 6.0 14.0 0.00 0.00 0.00 22 1008.4
20260504191117 71 311 6.0 14.0 0.00 0.00 0.00 21 1008.2
20260504190617 71 315 6.0 11.0 0.00 0.00 0.00 21 1008.2
20260504190138 71 304 7.0 13.0 0.00 0.00 0.00 21 1008.4
20260504190025 71 303 9.0 13.0 0.00 0.00 0.00 22 1008.7
20260504185638 71 300 5.0 13.0 0.00 0.00 0.00 23 1008.4
20260504185117 70 303 4.0 12.0 0.00 0.00 0.00 23 1008.4
20260504185045 70 309 11.0 11.0 0.00 0.00 0.00 24 1008.8
20260504184617 70 295 5.0 11.0 0.00 0.00 0.00 23 1008.6
20260504184605 70 317 2.0 11.0 0.00 0.00 0.00 23 1008.9
20260504184117 70 286 5.0 12.0 0.00 0.00 0.00 25 1008.6
20260504184011 70 277 4.0 12.0 0.00 0.00 0.00 24 1008.9
20260504183617 70 300 5.0 12.0 0.00 0.00 0.00 23 1008.5
20260504183517 69 276 9.0 12.0 0.00 0.00 0.00 25 1009.0
20260504183117 70 314 3.0 8.0 0.00 0.00 0.00 23 1008.6
20260504183036 69 283 0.0 8.0 0.00 0.00 0.00 23 1009.0
20260504182638 69 280 4.0 11.0 0.00 0.00 0.00 26 1008.6
20260504182552 69 317 6.0 8.0 0.00 0.00 0.00 25 1009.1
20260504182117 69 260 4.0 11.0 0.00 0.00 0.00 24 1008.6
20260504182003 68 232 4.0 11.0 0.00 0.00 0.00 24 1009.0
20260504181617 69 275 5.0 10.0 0.00 0.00 0.00 23 1008.8
20260504181523 68 242 11.0 11.0 0.00 0.00 0.00 24 1009.0
20260504181117 68 266 5.0 10.0 0.00 0.00 0.00 26 1008.8
20260504181040 68 307 4.0 10.0 0.00 0.00 0.00 25 1009.1
20260504180617 68 237 4.0 10.0 0.00 0.00 0.00 25 1008.8
20260504180602 67 294 2.0 10.0 0.00 0.00 0.00 25 1009.0
20260504180117 68 245 4.0 10.0 0.00 0.00 0.00 23 1008.9
20260504180008 67 254 5.0 9.0 0.00 0.00 0.00 25 1009.1
20260504175617 67 264 4.0 8.0 0.00 0.00 0.00 27 1008.9
20260504175525 67 288 4.0 9.0 0.00 0.00 0.00 26 1009.1
20260504175117 67 271 5.0 11.0 0.00 0.00 0.00 24 1008.9
20260504175043 67 263 4.0 11.0 0.00 0.00 0.00 25 1009.1
20260504174617 67 258 5.0 11.0 0.00 0.00 0.00 24 1009.1
20260504174605 67 309 2.0 11.0 0.00 0.00 0.00 24 1009.3
20260504174117 67 250 5.0 10.0 0.00 0.00 0.00 25 1009.1
20260504174011 67 229 5.0 10.0 0.00 0.00 0.00 24 1009.3
20260504173617 67 268 3.0 9.0 0.00 0.00 0.00 23 1009.0
20260504173458 67 252 5.0 9.0 0.00 0.00 0.00 25 1009.3
20260504173117 67 274 4.0 9.0 0.00 0.00 0.00 23 1008.8
20260504173020 66 278 6.0 9.0 0.00 0.00 0.00 22 1009.4
20260504172617 66 270 4.0 9.0 0.00 0.00 0.00 23 1008.8
20260504172536 66 287 2.0 9.0 0.00 0.00 0.00 23 1009.3
20260504172117 66 267 4.0 9.0 0.00 0.00 0.00 23 1009.1
20260504172022 66 257 2.0 9.0 0.00 0.00 0.00 22 1009.4
20260504171638 66 262 3.0 8.0 0.00 0.00 0.00 24 1009.1
20260504171540 66 306 5.0 10.0 0.00 0.00 0.00 24 1009.3
20260504171117 66 254 3.0 10.0 0.00 0.00 0.00 22 1009.1
20260504170638 66 254 3.0 10.0 0.00 0.00 0.00 23 1009.1
20260504170557 65 241 8.0 8.0 0.00 0.00 0.00 23 1009.5
20260504170117 66 238 2.0 7.0 0.00 0.00 0.00 22 1009.3
20260504160200 61 273 3.0 6.0 0.00 0.00 0.00 27 1009.6
20260504160117 61 269 2.0 6.0 0.00 0.00 0.00 27 1009.2
20260504151124 57 269 3.0 5.0 0.00 0.00 0.00 31 1009.6
20260504151117 57 281 3.0 5.0 0.00 0.00 0.00 31 1009.3
20260504150617 56 263 1.0 4.0 0.00 0.00 0.00 31 1009.3
20260504150152 54 249 2.0 3.0 0.00 0.00 0.00 32 1009.5
20260504150138 55 245 1.0 3.0 0.00 0.00 0.00 32 1009.3
20260504141206 49 313 2.0 3.0 0.00 0.00 0.00 36 1009.7
20260504141117 50 315 1.0 2.0 0.00 0.00 0.00 36 1009.4
20260504140617 50 315 0.0 3.0 0.00 0.00 0.00 36 1009.3
20260504140613 49 315 0.0 3.0 0.00 0.00 0.00 36 1009.7
20260504140135 49 314 1.0 3.0 0.00 0.00 0.00 36 1009.7
20260504140117 50 315 0.0 3.0 0.00 0.00 0.00 36 1009.3
20260504130625 47 67 3.0 5.0 0.00 0.00 0.00 33 1009.3
20260504130617 47 71 3.0 5.0 0.00 0.00 0.00 33 1008.7
20260504130145 47 69 4.0 4.0 0.00 0.00 0.00 32 1009.2
20260504130138 48 62 3.0 4.0 0.00 0.00 0.00 32 1008.7
20260504120117 50 123 0.0 2.0 0.00 0.00 0.00 31 1008.7
20260504110628 49 102 3.0 6.0 0.00 0.00 0.00 35 1009.3
20260504110617 49 136 4.0 6.0 0.00 0.00 0.00 35 1009.1
20260504110146 48 138 5.0 5.0 0.00 0.00 0.00 35 1009.5
20260504110117 49 151 4.0 6.0 0.00 0.00 0.00 35 1009.0
20260504100604 48 159 1.0 3.0 0.00 0.00 0.00 34 1009.3
20260504100117 49 164 3.0 5.0 0.00 0.00 0.00 34 1009.1
20260504090117 56 258 1.0 3.0 0.00 0.00 0.00 23 1008.6
20260504081617 60 98 8.0 10.0 0.00 0.00 0.00 17 1008.7
20260504081603 60 90 6.0 10.0 0.00 0.00 0.00 17 1009.1
20260504081117 61 104 8.0 10.0 0.00 0.00 0.00 16 1008.7
20260504081008 60 98 7.0 10.0 0.00 0.00 0.00 16 1009.0
20260504080617 61 106 8.0 10.0 0.00 0.00 0.00 16 1008.7
20260504080117 61 108 8.0 11.0 0.00 0.00 0.00 17 1008.7
20260504070117 61 107 10.0 14.0 0.00 0.00 0.00 17 1008.8
20260504060117 61 103 10.0 13.0 0.00 0.00 0.00 18 1009.3
20260504050638 62 101 10.0 13.0 0.00 0.00 0.00 18 1009.7
20260504050117 62 104 10.0 13.0 0.00 0.00 0.00 17 1009.7
20260504050012 62 97 11.0 13.0 0.00 0.00 0.00 17 1010.0
20260504045617 62 105 11.0 14.0 0.00 0.00 0.00 16 1009.7
20260504045527 62 115 13.0 14.0 0.00 0.00 0.00 16 1010.1
20260504045117 63 101 11.0 14.0 0.00 0.00 0.00 16 1009.8
20260504045046 62 101 10.0 14.0 0.00 0.00 0.00 16 1010.0
20260504044617 63 98 11.0 14.0 0.00 0.00 0.00 16 1009.8
20260504044605 62 94 12.0 14.0 0.00 0.00 0.00 16 1010.0
20260504044138 63 99 10.0 13.0 0.00 0.00 0.00 16 1009.8
20260504044011 62 95 11.0 13.0 0.00 0.00 0.00 16 1010.1
20260504043617 63 100 10.0 14.0 0.00 0.00 0.00 16 1009.7
20260504043501 62 115 10.0 14.0 0.00 0.00 0.00 16 1009.8
20260504043117 63 100 11.0 15.0 0.00 0.00 0.00 16 1009.7
20260504043023 62 88 11.0 15.0 0.00 0.00 0.00 15 1010.0
20260504042617 63 103 11.0 15.0 0.00 0.00 0.00 16 1009.7
20260504042539 63 102 12.0 15.0 0.00 0.00 0.00 15 1009.9
20260504042117 63 105 10.0 13.0 0.00 0.00 0.00 15 1009.7
20260504042056 63 115 12.0 13.0 0.00 0.00 0.00 15 1009.9
20260504041638 64 103 10.0 13.0 0.00 0.00 0.00 15 1009.7
20260504041507 63 96 8.0 13.0 0.00 0.00 0.00 15 1010.1
20260504041117 64 104 10.0 13.0 0.00 0.00 0.00 14 1009.7
20260504041025 63 89 8.0 12.0 0.00 0.00 0.00 15 1009.8
20260504040617 64 104 10.0 13.0 0.00 0.00 0.00 15 1009.7
20260504040545 63 108 8.0 13.0 0.00 0.00 0.00 15 1009.9
20260504040117 63 101 10.0 13.0 0.00 0.00 0.00 15 1009.7
20260504040106 63 94 9.0 13.0 0.00 0.00 0.00 15 1009.8
20260504035638 64 101 9.0 12.0 0.00 0.00 0.00 15 1009.7
20260504035512 63 103 10.0 12.0 0.00 0.00 0.00 15 1010.0
20260504035117 64 105 9.0 13.0 0.00 0.00 0.00 15 1009.7
20260504035030 63 88 10.0 13.0 0.00 0.00 0.00 15 1010.0
20260504034617 64 107 10.0 13.0 0.00 0.00 0.00 15 1009.6
20260504034605 63 96 11.0 13.0 0.00 0.00 0.00 15 1010.1
20260504034138 64 106 9.0 12.0 0.00 0.00 0.00 15 1009.6
20260504034012 63 113 11.0 12.0 0.00 0.00 0.00 16 1010.0
20260504033617 64 104 9.0 12.0 0.00 0.00 0.00 16 1009.7
20260504033513 63 109 9.0 12.0 0.00 0.00 0.00 16 1009.8
20260504033138 64 102 9.0 12.0 0.00 0.00 0.00 16 1009.7
20260504032617 64 102 9.0 12.0 0.00 0.00 0.00 15 1009.5
20260504032518 64 98 10.0 12.0 0.00 0.00 0.00 15 1009.8
20260504032117 65 103 9.0 12.0 0.00 0.00 0.00 15 1009.2
20260504031617 65 106 10.0 12.0 0.00 0.00 0.00 15 1009.2
20260504031542 64 114 10.0 12.0 0.00 0.00 0.00 15 1009.7
20260504031117 65 107 9.0 12.0 0.00 0.00 0.00 15 1009.2
20260504031058 65 102 8.0 12.0 0.00 0.00 0.00 15 1009.7
20260504030617 65 107 9.0 12.0 0.00 0.00 0.00 15 1009.1
20260504030508 65 111 7.0 12.0 0.00 0.00 0.00 15 1009.6
20260504030117 65 106 9.0 12.0 0.00 0.00 0.00 14 1009.1
20260504030027 65 100 10.0 12.0 0.00 0.00 0.00 14 1009.7
20260504025617 66 105 10.0 12.0 0.00 0.00 0.00 15 1009.1
20260504025543 65 121 9.0 12.0 0.00 0.00 0.00 14 1009.6
20260504025138 66 106 10.0 13.0 0.00 0.00 0.00 14 1009.1
20260504025102 66 98 10.0 13.0 0.00 0.00 0.00 14 1009.5
20260504024638 66 107 10.0 13.0 0.00 0.00 0.00 14 1009.3
20260504024512 66 129 8.0 13.0 0.00 0.00 0.00 14 1009.4
20260504024117 66 107 11.0 14.0 0.00 0.00 0.00 14 1009.3
20260504023617 67 108 10.0 14.0 0.00 0.00 0.00 14 1009.4
20260504023117 67 106 9.0 13.0 0.00 0.00 0.00 13 1009.4
20260504023013 67 103 11.0 13.0 0.00 0.00 0.00 13 1009.7
20260504022617 68 105 8.0 11.0 0.00 0.00 0.00 13 1009.4
20260504022530 67 103 7.0 11.0 0.00 0.00 0.00 13 1009.5
20260504022117 68 107 8.0 11.0 0.00 0.00 0.00 12 1009.4
20260504022037 68 144 9.0 11.0 0.00 0.00 0.00 12 1009.7
20260504021617 69 109 8.0 12.0 0.00 0.00 0.00 12 1009.3
20260504021117 69 116 8.0 12.0 0.00 0.00 0.00 12 1009.3
20260504021048 69 110 7.0 12.0 0.00 0.00 0.00 12 1009.6
20260504020617 70 150 6.0 11.0 0.00 0.00 0.00 11 1009.3
20260504020117 71 202 4.0 9.0 0.00 0.00 0.00 9 1009.4
20260504020110 70 135 4.0 10.0 0.00 0.00 0.00 9 1009.6
20260504015617 71 217 3.0 7.0 0.00 0.00 0.00 7 1009.4
20260504015517 71 207 2.0 7.0 0.00 0.00 0.00 7 1009.6
20260504015117 72 203 3.0 6.0 0.00 0.00 0.00 7 1009.4
20260504014617 72 202 4.0 10.0 0.00 0.00 0.00 6 1009.4
20260504014117 73 221 5.0 10.0 0.00 0.00 0.00 6 1009.5
20260504014019 72 183 4.0 10.0 0.00 0.00 0.00 6 1009.7
20260504013617 74 244 4.0 10.0 0.00 0.00 0.00 5 1009.5
20260504013531 74 232 4.0 10.0 0.00 0.00 0.00 5 1009.8
20260504013138 75 284 2.0 5.0 0.00 0.00 0.00 5 1009.8
20260504013052 75 259 2.0 5.0 0.00 0.00 0.00 5 1009.9
20260504012617 75 294 3.0 8.0 0.00 0.00 0.00 6 1009.8
20260504012502 75 313 2.0 8.0 0.00 0.00 0.00 6 1010.2
20260504012138 75 271 4.0 8.0 0.00 0.00 0.00 6 1009.8
20260504012018 74 293 2.0 8.0 0.00 0.00 0.00 4 1010.0
20260504011617 75 268 4.0 9.0 0.00 0.00 0.00 3 1010.0
20260504011536 75 277 7.0 9.0 0.00 0.00 0.00 4 1010.2
20260504011117 76 268 4.0 9.0 0.00 0.00 0.00 5 1010.0
20260504011053 75 279 7.0 9.0 0.00 0.00 0.00 6 1010.2
20260504010617 76 258 3.0 8.0 0.00 0.00 0.00 4 1010.0
20260504010117 77 263 2.0 7.0 0.00 0.00 0.00 4 1010.2
20260504010007 76 245 5.0 7.0 0.00 0.00 0.00 4 1010.4
20260504005617 77 297 2.0 7.0 0.00 0.00 0.00 4 1010.2
20260504005522 76 257 2.0 7.0 0.00 0.00 0.00 4 1010.4
20260504005117 77 309 4.0 8.0 0.00 0.00 0.00 5 1010.2
20260504005044 76 314 1.0 8.0 0.00 0.00 0.00 5 1010.3
20260504004638 77 313 4.0 9.0 0.00 0.00 0.00 4 1010.3
20260504004603 77 281 4.0 9.0 0.00 0.00 0.00 5 1010.5
20260504004117 77 314 3.0 9.0 0.00 0.00 0.00 7 1010.3